Wind_Speed
26 25 23 21 19 16 14 12 10 10 12 13 14 15 13 11 10 10 10 10 11 12 13 15 16 17 17 17 17 16 15 14 14 14 15 15 15 15 14 13 12 11 11 11 12 13 14 13 13 13 12 12 11 10 9 8 8 7 6 6 6 5 5 5 5 5 4 4 4 4 3 3 3 3 4 4 4 3 3 4 4 5 5 6 7
25 23 22 21 19 16 13 11 10 10 11 12 14 14 13 11 10 9 10 10 11 12 13 14 16 17 17 17 17 16 15 14 14 14 14 15 15 15 14 13 12 11 10 11 12 13 13 13 12 12 11 11 11 10 9 8 7 7 6 6 6 5 5 5 5 5 4 5 5 5 4 4 4 4 4 5 5 5 5 5 5 6 6 7 8
24 23 21 20 18 15 13 11 10 9 10 12 13 13 12 10 9 9 9 10 11 12 13 14 15 16 16 17 17 16 15 14 14 14 14 14 15 15 14 13 12 10 10 11 12 13 13 13 12 11 11 10 10 9 9 8 8 7 7 7 6 6 5 5 5 5 5 5 5 5 5 5 6 6 6 6 6 7 7 7 7 7 8 8 9
25 23 20 19 17 15 12 11 9 9 10 11 13 13 11 10 9 9 9 9 10 11 12 13 15 16 16 16 16 16 15 14 14 14 14 14 14 14 14 13 12 11 10 11 13 14 13 13 12 11 11 10 9 9 9 8 8 8 8 8 8 7 6 5 5 5 6 6 6 6 6 6 7 7 7 7 8 8 8 8 8 8 9 9 9
24 21 19 18 16 14 12 10 9 9 9 11 12 12 11 10 9 9 9 9 10 11 11 13 15 16 16 16 16 16 15 14 14 15 15 14 14 14 13 13 11 11 11 12 13 14 13 12 12 11 11 10 9 9 9 9 8 8 8 8 8 7 7 6 6 6 6 7 7 7 7 7 7 7 7 8 8 8 8 8 8 9 10 10 10
22 20 18 16 15 14 12 11 9 8 9 10 11 12 12 10 9 9 9 9 10 10 11 12 15 16 16 16 16 16 15 15 15 15 15 15 15 14 13 12 11 11 11 12 13 13 13 12 11 11 10 10 9 9 9 8 8 8 8 8 8 7 7 7 7 7 7 7 7 7 7 7 7 7 7 7 7 7 7 8 8 9 10 11 11
19 18 17 16 15 14 12 11 9 9 9 10 11 12 12 11 10 9 9 9 9 10 10 13 15 16 16 16 16 16 16 15 16 15 15 16 15 14 13 12 11 11 11 12 13 12 12 12 11 11 10 10 10 9 9 8 8 7 7 7 8 8 7 7 7 8 7 7 7 7 7 7 6 7 7 7 7 7 7 7 8 9 10 11 12
18 18 17 16 15 14 12 11 9 9 9 10 11 11 12 11 10 9 9 9 9 9 11 13 15 15 16 16 17 16 16 16 16 16 16 16 16 15 14 12 11 11 12 12 12 11 11 11 11 10 10 10 10 9 9 8 7 7 7 7 7 8 7 7 7 7 7 6 6 6 6 6 6 6 6 6 6 7 7 7 8 9 10 11 12
18 17 17 16 15 14 13 11 10 10 10 11 11 11 12 11 10 9 9 9 9 9 11 13 14 15 16 16 17 16 16 17 17 17 17 16 15 14 13 12 12 11 11 11 11 11 11 11 11 10 10 10 10 10 9 8 8 7 6 6 7 7 7 6 6 6 5 5 5 5 5 5 6 6 6 6 7 7 8 8 9 9 10 11 11
18 17 17 16 15 14 13 12 11 10 10 11 11 11 11 11 11 10 9 9 8 9 12 13 14 15 16 17 16 16 17 18 18 18 17 16 15 14 13 12 11 11 10 10 10 10 11 11 11 10 10 10 10 10 9 9 8 7 6 6 6 6 6 6 6 5 5 5 5 5 5 5 6 6 6 7 7 8 9 9 10 10 11 11 12
17 17 16 16 16 15 14 13 12 11 11 11 11 11 11 11 11 10 9 8 8 10 12 13 14 15 16 16 16 16 17 18 18 18 17 16 15 13 12 12 11 10 9 9 9 10 10 10 10 10 10 10 10 10 9 9 8 7 6 6 6 6 6 6 5 5 5 5 5 6 6 6 6 6 7 8 8 9 9 10 11 11 12 12 13
17 17 16 16 16 16 15 15 13 12 12 12 12 11 11 11 11 10 9 8 9 11 12 12 13 15 16 16 16 17 18 18 18 18 17 16 14 13 12 11 10 9 9 9 9 9 9 10 10 11 11 11 10 10 9 9 8 7 7 7 7 6 6 6 5 6 7 6 6 7 7 6 6 7 7 8 9 10 11 11 12 12 13 13 13
18 17 17 17 18 17 17 16 15 14 13 12 13 12 11 11 11 10 9 9 10 11 11 12 14 15 16 15 16 17 17 18 18 18 17 16 14 12 11 10 9 8 8 8 8 9 9 10 10 11 11 11 11 11 10 9 8 8 7 7 7 7 7 8 6 6 7 7 7 8 8 7 8 8 9 10 11 12 12 13 13 13 13 14 14
18 18 18 18 18 18 17 16 15 15 14 13 13 12 11 11 11 10 9 10 11 11 11 12 14 15 15 15 16 17 17 17 17 17 16 15 13 11 10 9 8 8 8 8 8 9 9 10 11 11 11 12 12 11 11 10 9 8 8 7 7 7 7 9 8 7 7 8 8 9 9 9 10 10 11 12 13 14 14 14 14 14 14 14 15
19 18 18 19 18 18 17 17 16 15 15 14 14 13 12 12 11 10 10 11 11 11 11 12 14 14 14 15 16 17 17 17 17 16 15 14 12 10 9 8 8 7 7 8 8 9 10 11 11 12 12 12 12 11 11 11 10 10 9 9 8 8 7 10 10 8 8 9 10 9 10 10 11 12 12 13 14 15 15 15 15 15 15 15 15
19 18 19 19 18 18 17 17 16 16 16 15 15 13 13 12 11 10 11 11 11 11 11 13 14 14 14 15 16 17 17 16 16 15 14 12 11 10 9 8 8 7 8 8 9 10 10 11 12 12 12 12 12 11 11 11 10 10 10 10 9 8 7 10 11 9 9 9 10 10 10 11 11 12 12 13 14 14 15 15 15 15 16 16 16
19 19 19 19 19 18 17 17 16 16 16 16 16 15 14 12 11 11 12 12 11 11 11 13 13 13 14 15 17 17 16 16 15 14 12 11 10 10 9 8 8 7 8 8 9 10 11 12 12 13 13 12 12 11 11 10 10 10 10 9 9 8 7 9 11 11 9 9 9 10 10 11 11 11 12 13 14 14 15 15 15 16 16 16 17
21 20 20 19 19 18 18 18 18 17 17 17 17 16 15 13 12 12 13 12 11 11 11 12 13 13 14 15 16 16 16 15 14 13 11 10 10 9 9 9 8 7 7 8 9 10 11 12 13 13 13 12 12 12 11 11 10 10 9 9 9 8 8 9 10 11 11 10 10 10 10 11 11 12 12 13 14 14 15 15 16 16 16 17 17
22 20 20 20 19 19 19 19 19 18 17 17 17 17 16 14 13 13 13 12 11 11 11 12 12 13 14 15 16 16 15 14 13 12 10 10 9 9 9 8 7 7 7 8 9 10 11 12 13 12 12 13 13 12 12 11 10 10 10 9 9 9 8 9 9 10 10 10 10 11 12 12 12 13 14 14 15 15 15 15 16 16 16 17 19
22 21 20 20 20 19 19 19 19 19 18 17 17 17 16 15 14 14 14 12 11 11 11 12 12 13 13 14 15 15 15 13 12 11 10 9 8 8 8 7 6 7 7 8 10 11 12 12 12 12 12 12 12 12 11 11 10 10 10 10 9 9 8 9 11 11 11 11 10 11 13 14 14 15 15 15 15 15 16 16 16 17 17 18 19
22 21 21 21 20 20 19 19 19 19 18 18 18 18 17 16 15 15 14 12 12 11 11 12 12 13 13 14 14 15 14 12 11 10 9 9 8 6 6 6 5 6 7 8 10 11 11 12 12 11 11 11 11 11 10 10 10 9 9 9 9 9 8 9 11 12 13 13 12 13 14 15 15 15 16 16 16 16 17 17 17 18 18 18 18
22 22 22 22 20 19 18 18 18 18 18 18 18 18 17 16 16 15 13 12 12 11 12 12 12 13 14 13 14 14 13 11 10 10 9 8 7 6 6 6 6 6 7 8 9 10 11 11 12 12 12 11 11 11 11 10 10 10 9 9 9 9 9 9 11 12 13 14 14 15 15 15 15 15 16 16 17 17 18 18 19 19 18 18 17
23 23 23 23 21 19 18 17 17 17 17 18 18 18 17 17 16 15 13 12 12 11 12 12 13 14 14 14 13 13 12 10 9 9 9 8 7 7 6 7 7 7 7 8 9 10 11 11 12 13 13 13 12 12 12 11 11 11 11 11 11 11 10 10 11 12 14 15 15 16 16 17 17 17 17 18 18 18 18 18 19 20 19 17 17
24 25 26 25 22 20 18 17 16 16 16 16 17 17 17 16 16 14 13 13 12 12 12 13 14 15 14 14 14 13 12 10 9 9 8 8 8 7 7 8 8 8 8 9 10 10 10 11 12 12 13 13 13 13 14 13 13 13 13 13 13 13 12 12 11 13 14 15 15 16 17 17 18 19 19 19 19 19 19 18 19 20 20 18 17
25 25 26 26 24 21 19 18 16 15 15 16 16 16 16 16 15 14 13 14 13 12 13 13 14 15 15 14 14 13 11 9 9 9 8 8 8 8 7 8 9 9 10 10 10 10 10 11 11 12 12 12 12 13 14 14 14 15 14 13 13 13 14 13 13 14 14 15 15 16 16 17 18 19 19 19 20 20 20 19 19 19 20 18 17
24 23 23 21 20 20 19 18 17 15 14 15 16 16 16 15 15 14 14 14 13 13 13 14 15 15 15 15 15 14 13 11 10 9 9 9 9 8 8 9 9 10 10 9 9 9 10 10 10 11 11 12 12 13 14 15 16 16 15 14 14 13 14 14 14 14 15 16 16 16 17 17 17 18 18 19 20 21 21 20 19 19 20 19 18
23 23 20 14 11 14 16 16 15 14 13 14 15 15 15 15 15 15 15 15 14 14 14 14 15 15 15 15 15 14 14 12 11 10 10 9 9 9 9 9 9 9 9 8 8 8 9 9 9 10 10 11 12 14 15 16 16 16 16 16 16 15 15 15 15 15 16 16 17 17 17 17 17 17 18 19 19 21 21 21 20 19 19 19 18
22 21 20 16 14 15 14 12 11 12 14 14 15 15 15 15 15 15 16 16 16 15 15 15 15 15 15 15 14 14 14 13 12 11 11 10 9 9 8 8 7 8 8 8 8 8 9 9 9 9 10 11 12 14 16 16 17 18 18 18 18 17 17 17 17 17 17 17 18 18 18 18 18 18 18 19 19 20 21 21 21 19 19 19 19
22 20 19 19 17 15 12 9 9 13 15 14 14 15 15 14 15 16 17 17 17 16 15 15 15 15 15 15 14 14 13 13 13 12 12 11 9 9 8 8 8 8 9 10 10 10 10 10 11 11 12 13 15 16 16 17 18 19 19 18 17 17 17 17 17 17 17 17 18 18 18 19 19 19 19 19 19 19 20 21 22 21 19 19 19
23 21 19 19 16 13 12 9 9 13 15 15 15 14 14 14 14 16 17 18 17 16 15 15 15 15 16 16 14 13 13 14 13 13 13 12 11 11 9 8 9 10 11 11 11 12 12 13 13 14 15 16 17 17 18 18 18 18 18 18 17 17 17 17 17 17 17 18 18 19 19 19 20 20 20 20 20 19 20 21 22 22 21 19 19
22 20 17 17 17 15 12 9 9 14 16 16 16 15 14 14 15 17 18 19 18 16 15 15 15 15 16 16 15 15 16 15 13 13 13 13 13 12 11 10 10 10 11 11 12 12 12 13 14 15 16 16 17 18 18 19 19 19 20 20 20 20 20 19 19 18 18 18 19 19 19 20 20 20 21 21 20 20 19 20 20 22 22 20 18
24 23 20 18 19 17 14 12 10 12 15 17 17 16 16 16 17 19 20 20 19 17 16 15 15 15 16 16 17 17 17 16 15 14 12 12 13 12 11 11 10 11 12 13 13 13 13 14 15 16 17 17 18 18 19 20 20 21 21 22 22 23 22 22 21 20 20 20 19 20 20 20 20 20 21 21 20 19 19 19 19 20 22 22 20
29 28 24 21 21 20 20 19 16 14 13 15 15 16 16 16 18 19 20 21 20 19 17 16 15 15 16 17 18 18 17 17 18 16 13 12 13 13 12 11 12 13 13 14 14 14 14 16 17 18 18 19 19 19 19 20 20 21 21 22 23 23 23 23 22 22 21 21 20 20 21 21 21 21 21 21 20 19 19 18 18 20 21 22 21
31 30 27 25 24 23 21 20 19 16 14 14 14 14 14 15 17 18 19 20 20 21 20 18 17 17 17 17 18 18 18 18 18 16 14 14 14 14 13 12 13 14 14 14 14 15 16 17 18 19 19 20 20 20 20 20 20 20 21 21 22 23 23 23 23 23 22 22 22 22 22 22 21 22 21 21 21 20 19 19 19 19 20 21 22
31 30 29 27 26 24 22 19 17 16 15 14 13 13 13 15 17 18 18 19 20 21 21 20 19 19 19 18 18 19 19 19 19 20 19 17 16 15 13 13 14 15 15 15 15 16 17 18 19 20 20 21 21 21 21 21 21 21 22 22 23 23 23 24 24 23 23 23 23 23 23 22 22 22 22 22 22 21 20 20 20 20 20 21 21
32 30 29 28 27 24 22 20 17 15 14 14 13 14 14 16 17 18 18 18 19 21 22 21 20 20 20 19 19 20 21 21 23 24 23 19 16 16 15 15 16 15 15 15 16 17 17 18 19 20 21 21 21 22 22 22 23 23 24 24 25 25 25 25 25 24 23 23 23 23 23 24 24 23 23 23 23 22 21 21 21 20 20 20 21
31 30 27 24 22 21 21 19 17 15 14 13 14 15 15 17 18 19 20 20 20 21 23 22 21 20 20 20 21 21 23 25 25 24 20 17 16 16 16 17 17 16 16 16 17 18 18 19 19 20 21 21 21 21 22 23 24 24 25 26 26 27 27 26 26 25 24 24 23 23 23 24 25 25 24 24 24 24 23 23 22 21 20 20 20
30 30 24 18 14 14 14 14 15 15 14 13 13 14 16 18 19 20 21 21 21 22 23 23 22 21 19 20 20 21 23 24 22 18 16 15 16 16 16 17 16 16 16 17 18 18 19 19 20 21 21 21 22 22 23 23 24 25 26 26 27 27 28 27 27 26 26 25 24 24 23 24 25 25 25 25 25 25 25 25 24 23 21 21 21
29 29 25 20 16 15 14 15 17 17 15 13 13 14 16 18 19 20 21 22 22 22 22 21 21 20 19 19 19 19 18 16 15 14 13 13 14 15 16 16 16 16 17 18 19 19 20 20 20 21 21 22 22 23 24 25 26 27 27 27 28 28 28 28 27 27 26 25 24 24 23 24 24 25 25 26 26 26 26 26 25 25 23 22 22
27 26 26 24 22 19 18 17 17 17 16 15 14 15 16 18 19 20 21 21 22 22 20 19 19 18 18 17 17 15 13 14 15 14 13 13 14 15 17 17 17 17 19 19 20 20 21 20 20 21 21 22 23 23 25 26 27 28 28 28 28 29 29 29 28 27 27 26 25 24 23 23 24 24 25 26 26 26 26 26 26 26 25 24 24
27 25 25 24 22 19 17 16 16 16 16 16 16 16 16 18 19 19 19 20 20 19 18 18 17 18 17 16 16 15 15 17 18 15 13 14 15 17 17 17 18 19 20 20 20 20 21 21 21 21 21 22 22 23 25 26 28 29 29 29 28 28 29 29 28 27 27 26 26 25 25 24 24 24 25 25 26 26 26 26 26 27 26 25 25
27 26 24 24 23 20 17 15 15 16 16 16 16 16 16 16 17 16 16 17 16 15 16 16 16 16 15 14 15 16 18 19 17 14 14 15 16 17 17 18 19 19 20 20 20 20 21 21 21 21 21 22 23 25 26 28 29 30 31 31 30 29 29 30 29 28 27 27 27 27 27 26 25 25 25 25 26 25 26 26 26 27 27 27 27
26 24 23 23 22 20 18 16 16 16 16 16 15 14 14 15 15 13 12 12 12 12 14 14 13 13 13 14 16 18 18 17 13 13 15 16 16 17 17 19 20 19 19 20 20 20 21 21 21 22 22 23 24 26 28 29 30 31 31 31 31 30 30 31 30 30 28 27 28 28 28 28 27 26 26 26 26 26 26 26 26 27 28 28 28
25 24 23 21 20 18 17 17 16 16 16 15 14 12 12 13 12 11 10 10 9 10 11 9 8 10 12 15 17 18 15 13 13 14 15 16 17 17 18 19 19 19 19 20 21 21 21 21 22 22 23 24 26 28 29 30 31 31 31 31 30 29 29 30 31 32 31 29 29 29 29 29 29 28 28 28 28 27 27 27 27 27 28 29 29
24 23 22 19 17 16 16 16 16 15 15 15 13 9 8 8 8 10 10 9 8 7 7 7 8 10 13 16 17 15 13 12 13 15 16 17 18 18 19 19 19 19 20 20 21 21 21 22 23 24 25 27 29 31 32 33 32 32 31 31 31 30 29 29 30 31 32 32 31 31 31 31 31 31 30 30 30 29 29 28 28 28 28 29 29
21 20 19 17 15 15 15 14 14 15 15 13 10 7 4 4 6 9 9 8 8 8 7 8 11 12 13 15 15 13 12 13 14 16 18 18 18 19 19 19 19 20 20 21 21 21 22 23 25 26 29 31 33 34 34 35 34 33 32 32 32 31 31 31 30 30 31 32 32 32 33 33 32 32 32 33 33 32 31 30 29 28 29 29 30
22 20 18 17 15 14 13 12 12 13 13 12 10 7 5 6 7 7 8 9 9 8 9 11 11 11 12 13 12 12 13 14 16 18 19 18 18 18 19 19 20 21 21 22 22 23 24 26 28 30 32 34 35 35 35 35 35 34 34 34 34 33 33 33 33 32 31 32 33 33 34 34 34 34 34 34 35 34 33 32 31 30 30 30 30
22 21 19 17 15 14 13 12 12 12 12 11 11 9 9 9 9 8 9 9 10 10 11 10 10 11 12 12 12 12 14 16 17 18 18 18 18 19 19 20 21 22 22 23 24 25 26 29 31 33 34 35 36 36 36 35 35 36 36 36 36 36 36 36 36 35 34 33 33 34 34 35 35 36 36 36 36 36 36 35 33 31 31 31 31
20 19 17 16 16 15 14 13 13 12 11 12 11 10 9 9 9 9 10 11 11 11 11 10 12 13 13 12 13 14 15 17 18 18 18 18 19 20 20 21 22 23 23 24 25 27 29 31 33 34 35 36 36 36 36 36 36 37 37 37 37 37 38 38 38 38 37 36 36 35 35 35 36 37 38 38 37 37 38 37 36 34 33 33 32
18 16 15 15 16 15 14 14 14 13 13 12 11 10 8 8 9 10 11 12 12 11 11 13 15 15 13 13 14 15 16 17 18 18 19 19 20 21 21 22 23 24 25 26 28 29 31 33 34 35 36 37 37 36 36 36 37 37 37 38 38 38 38 38 38 39 39 38 38 37 37 37 37 38 39 40 40 40 39 39 39 38 37 36 35
17 15 15 16 16 15 14 14 14 15 14 13 11 10 9 9 10 11 11 12 11 12 13 15 15 13 12 13 14 15 16 17 18 18 19 20 21 21 22 23 24 25 27 28 30 32 33 34 35 36 36 37 37 36 36 37 37 37 38 38 38 38 38 38 38 38 38 38 38 38 39 39 39 39 39 40 42 42 42 41 41 41 40 39 38
Wind_Direction
332 327 323 320 318 320 323 322 326 335 340 344 347 347 341 335 332 331 334 339 342 345 348 348 348 347 349 351 350 350 349 351 350 352 355 358 0 1 1 1 2 2 3 5 7 9 11 13 14 15 16 17 17 18 18 19 21 24 26 29 32 34 33 34 33 27 22 19 14 9 3 352 348 346 339 330 319 310 298 289 286 285 285 285 286
330 325 319 316 315 316 317 315 320 331 336 341 344 345 340 332 329 328 330 333 336 340 344 345 344 344 347 348 346 347 348 346 344 347 350 353 356 358 0 0 1 0 358 359 359 1 5 9 11 14 14 14 15 16 17 18 20 22 25 28 30 31 32 32 31 25 21 20 14 10 4 358 348 342 336 331 326 318 309 301 293 288 285 284 285
324 321 315 310 310 309 309 307 315 325 332 338 340 342 338 329 325 324 325 327 331 337 341 341 340 341 344 344 344 346 346 344 342 343 346 348 352 355 357 357 358 357 354 353 354 356 359 4 8 11 11 11 11 11 12 13 15 18 21 23 25 26 27 27 24 19 15 14 13 7 4 3 353 345 344 339 332 324 315 306 298 291 287 285 285
320 316 310 305 304 303 301 301 308 318 326 334 336 338 335 326 321 319 321 323 330 335 338 337 335 338 341 341 343 345 345 344 343 343 345 347 350 352 353 354 354 352 351 350 352 353 356 360 3 6 7 8 7 6 7 8 12 16 19 21 23 22 20 18 16 14 13 12 10 7 4 7 359 354 356 348 339 329 318 308 300 294 289 286 285
316 310 303 299 297 297 294 293 300 311 321 328 330 333 331 323 318 317 318 322 328 332 334 333 332 335 337 338 341 343 344 344 344 344 345 346 348 350 351 351 350 347 348 349 351 352 354 358 0 1 3 4 4 4 4 6 10 15 19 20 20 18 14 10 9 9 10 9 10 9 8 9 3 2 4 353 342 331 320 311 302 295 290 286 284
311 304 297 292 291 290 287 286 292 303 314 321 325 329 329 323 318 316 317 322 326 329 330 328 330 332 334 337 340 342 344 344 343 344 344 345 346 348 350 349 347 347 348 349 350 352 355 359 0 359 360 2 2 3 4 5 8 13 17 19 18 15 12 8 7 8 6 6 8 9 10 8 4 7 5 353 342 333 323 313 303 295 289 285 282
304 296 290 286 285 283 281 281 285 296 308 314 320 326 329 324 318 315 316 321 325 326 325 325 327 329 332 336 338 341 343 342 342 342 343 343 344 346 347 347 347 349 350 351 352 355 0 3 3 1 0 1 3 5 5 5 5 10 14 18 17 14 12 9 11 11 8 6 3 5 6 360 0 5 359 349 340 334 328 318 308 299 291 286 283
296 289 285 282 281 279 277 278 280 289 300 307 314 322 327 323 315 312 315 319 322 322 321 322 324 327 331 335 337 340 341 340 340 340 342 342 342 343 344 346 349 352 352 354 357 2 6 8 8 6 5 5 5 6 5 3 2 6 11 17 18 16 13 9 15 15 11 6 1 1 355 348 354 358 348 339 334 330 326 320 314 307 300 293 286
292 285 282 280 279 277 275 274 275 282 291 299 307 315 321 319 311 309 311 315 318 316 315 318 321 327 331 334 337 340 340 339 339 339 340 341 340 341 342 345 350 354 356 0 5 8 11 12 12 12 11 10 8 6 4 2 1 5 10 15 16 16 12 10 15 14 9 3 4 356 336 343 351 344 333 327 324 321 319 316 314 311 307 301 295
290 285 281 279 277 276 272 271 269 275 283 291 299 306 313 313 307 304 307 310 311 309 310 315 321 327 330 333 337 338 339 339 339 339 339 339 338 339 341 346 352 358 3 9 12 14 15 15 16 15 14 13 11 9 8 6 4 7 9 11 8 6 3 6 10 5 359 355 1 342 328 352 348 333 325 321 323 320 317 316 314 311 308 306 302
286 281 277 276 275 272 270 267 266 269 277 284 290 296 305 308 302 299 301 303 302 302 307 314 322 327 330 333 336 337 338 339 338 338 338 337 337 339 342 348 354 3 11 16 18 19 19 20 20 20 19 18 17 17 16 15 14 12 10 10 4 359 352 354 358 350 344 346 348 330 336 355 338 328 327 326 329 325 322 319 316 313 310 307 305
280 275 271 272 273 272 270 265 263 265 270 276 282 287 296 301 297 295 296 295 294 298 306 315 322 326 329 332 334 336 338 339 339 338 338 337 337 340 344 350 357 8 17 22 24 23 24 25 27 27 26 25 24 24 24 22 20 16 12 10 5 1 348 338 346 341 333 338 339 328 337 344 326 326 329 329 329 326 324 321 319 316 314 311 309
277 273 271 271 272 272 269 265 263 262 265 270 274 280 288 295 293 292 291 287 289 297 306 315 321 324 327 330 333 336 339 340 341 341 338 337 339 342 346 352 1 13 22 27 28 28 28 29 31 31 30 29 28 26 25 23 21 17 12 8 5 5 346 329 343 347 329 331 332 326 330 329 321 323 324 323 322 320 319 316 316 314 314 314 312
277 274 272 270 270 271 269 266 263 261 262 265 269 274 282 288 289 288 283 280 286 296 306 314 319 322 326 329 332 336 340 343 344 342 340 339 341 344 349 357 8 18 25 30 32 31 30 29 29 28 28 27 26 24 22 20 17 15 9 6 5 6 346 325 341 357 336 333 334 329 329 325 320 318 317 316 314 314 312 311 310 309 310 310 310
276 274 271 269 268 268 268 267 263 260 259 262 267 271 277 281 283 281 276 277 285 295 305 311 317 321 325 327 331 337 342 344 344 343 342 342 344 348 354 3 14 22 27 31 33 33 31 28 25 23 22 21 20 18 16 15 12 10 6 5 5 7 348 324 337 355 342 337 339 336 332 327 323 319 316 313 311 310 309 308 307 307 306 305 305
274 272 270 269 268 268 268 267 264 261 260 262 265 268 272 275 275 273 270 274 282 293 303 309 315 319 323 326 331 338 342 343 343 344 345 347 349 353 360 9 18 24 27 31 32 31 28 24 21 18 17 15 14 13 11 10 8 6 4 3 4 5 347 327 334 346 344 340 338 337 334 329 326 321 316 314 311 310 309 309 309 309 309 308 306
272 269 268 268 267 268 269 268 267 265 263 262 263 265 267 268 266 264 266 272 281 292 300 306 313 317 321 326 333 339 340 341 342 345 350 352 354 358 4 11 18 22 26 28 27 25 22 18 16 15 14 13 13 13 11 8 5 2 1 359 359 360 344 330 333 338 340 340 334 330 328 325 322 318 315 313 311 310 311 312 313 313 313 313 311
271 269 267 265 265 267 269 269 269 267 265 262 261 262 262 261 257 257 262 269 281 289 297 304 311 315 319 327 333 338 338 339 340 344 352 356 358 1 4 8 15 19 21 21 18 15 13 12 11 13 14 14 14 13 11 7 4 1 358 356 355 355 345 333 332 334 337 337 330 325 322 319 316 313 311 309 308 309 311 312 313 313 314 314 312
271 269 265 263 264 266 269 270 269 267 264 261 258 257 256 254 251 253 258 268 280 287 294 302 308 312 317 326 333 336 337 337 339 343 352 356 359 3 2 3 9 12 14 12 9 7 6 8 9 12 14 15 15 12 10 6 5 3 2 1 1 0 351 337 333 334 335 335 329 323 319 317 315 312 310 309 310 310 311 312 312 313 314 314 312
269 267 263 261 263 266 269 271 269 265 260 257 255 252 251 249 247 250 257 267 278 285 291 298 304 308 315 325 331 334 336 337 337 341 348 352 357 1 1 2 7 7 7 5 4 4 5 8 9 10 12 13 11 8 6 6 6 7 7 8 10 11 1 342 335 337 337 336 332 326 324 323 321 318 316 315 314 313 313 313 313 313 313 314 313
267 264 261 260 262 266 270 270 267 261 256 253 251 250 248 246 245 249 256 267 277 282 287 294 300 305 313 323 329 333 335 335 335 338 343 348 353 355 358 5 11 10 6 5 5 5 5 5 5 5 6 6 3 0 359 1 3 5 6 9 12 14 11 352 339 340 340 338 336 333 332 329 326 322 320 317 316 316 315 315 314 313 313 315 315
265 264 262 262 264 268 269 268 264 259 254 251 250 249 247 246 246 251 258 268 276 278 283 292 298 302 310 320 327 330 331 331 331 334 337 342 346 347 355 5 11 13 11 10 10 6 3 360 357 356 355 356 354 351 351 353 355 356 356 359 4 7 9 359 344 340 339 339 339 337 335 332 327 323 320 318 317 318 317 316 314 313 315 317 317
269 270 269 268 268 269 270 269 264 259 255 251 251 250 249 249 250 255 260 268 274 277 283 289 294 299 307 315 323 326 326 327 329 327 330 335 340 342 353 2 6 9 10 10 9 5 1 355 351 351 349 349 349 347 347 347 348 348 349 350 354 357 358 355 343 337 336 337 337 335 332 330 328 325 322 320 319 318 317 315 314 314 315 317 317
278 277 276 275 272 272 274 272 267 263 259 256 254 253 251 252 254 257 261 266 273 277 280 285 291 296 303 311 318 321 322 324 321 318 323 330 334 337 346 357 0 2 4 6 5 2 359 353 352 352 349 346 346 347 347 346 346 346 347 348 349 351 351 349 341 334 333 333 332 331 329 329 328 326 324 322 321 320 318 316 314 314 315 317 315
277 274 275 275 270 272 277 274 271 269 265 262 259 256 254 254 256 258 261 265 273 277 277 283 289 293 300 308 313 317 319 318 313 312 317 321 324 329 341 354 356 355 360 2 2 1 358 356 357 355 350 347 349 351 350 349 349 348 348 349 349 350 349 347 339 333 332 331 329 329 329 328 326 324 323 323 323 322 321 318 316 314 314 316 315
274 273 278 277 265 260 264 266 267 269 268 268 264 259 258 257 258 259 262 267 273 276 277 281 286 291 298 304 310 315 317 316 312 309 310 314 319 328 342 353 353 350 353 355 357 360 358 357 358 356 351 351 354 355 355 353 351 350 351 351 350 352 350 346 339 333 333 331 330 329 328 327 325 322 321 321 322 321 320 319 317 314 312 314 314
272 275 278 274 253 242 245 251 259 269 275 276 269 263 260 259 260 263 265 269 273 276 278 281 284 290 295 299 306 312 316 317 313 309 308 312 318 327 340 348 346 342 343 347 353 355 351 350 352 355 355 353 354 355 355 355 351 350 351 351 350 350 347 344 340 337 336 334 332 330 327 325 322 320 318 318 319 318 317 317 317 317 313 313 314
261 269 270 264 252 237 233 242 258 269 271 269 265 263 263 263 267 269 270 272 275 279 280 280 284 289 291 294 302 309 315 317 315 311 308 311 317 324 330 334 335 333 333 338 345 343 339 342 347 352 355 353 354 354 353 352 349 349 348 348 348 346 344 341 340 338 338 336 333 331 328 325 323 320 318 316 315 313 313 314 316 317 315 313 313
258 265 271 272 262 242 232 240 256 261 260 259 260 262 266 269 272 272 273 275 277 280 281 281 284 286 288 291 298 305 313 317 316 309 305 308 309 309 313 321 327 326 328 333 333 331 334 341 346 349 350 350 350 349 348 346 345 345 343 342 340 339 337 336 335 335 335 333 331 330 328 326 324 322 319 316 313 311 310 311 312 313 312 311 311
270 271 275 275 269 256 251 253 257 264 266 265 264 265 268 269 271 273 274 275 277 280 282 282 281 282 285 289 293 298 305 310 310 303 301 305 303 302 307 316 321 321 323 325 324 325 333 341 343 344 344 344 343 342 341 340 338 337 334 332 331 330 329 329 330 329 329 329 328 327 326 325 324 322 320 318 315 311 308 308 308 309 309 309 309
273 272 273 269 268 267 267 267 268 274 275 274 273 272 273 272 272 272 273 275 277 281 282 281 280 280 285 287 288 293 297 299 298 298 302 304 300 301 305 306 309 312 313 313 314 321 329 334 336 336 335 335 334 334 333 332 330 329 328 327 327 326 325 325 326 325 324 323 323 323 322 322 322 321 320 318 316 312 308 307 307 306 307 308 308
274 274 275 271 271 271 274 281 279 280 280 279 280 279 277 276 274 273 273 275 278 281 280 279 280 281 281 282 285 289 291 291 291 289 293 298 295 295 296 294 299 305 306 306 310 317 324 328 331 330 328 328 329 329 328 328 327 326 326 326 325 325 324 323 322 321 320 318 318 317 317 317 318 318 318 317 315 312 308 307 307 306 306 307 308
278 278 278 278 279 276 278 284 281 279 283 282 281 280 279 278 277 276 275 277 279 280 278 277 278 278 277 278 282 286 286 291 294 288 278 281 286 286 286 288 296 302 302 303 308 317 322 326 327 326 325 326 327 327 327 327 326 325 325 325 324 323 322 321 320 318 317 314 312 311 312 313 313 313 313 313 313 311 309 308 307 306 306 307 307
277 277 277 278 278 276 278 284 280 274 277 281 281 280 280 280 279 279 279 280 281 281 280 277 275 275 275 276 279 282 284 286 292 290 281 279 282 284 288 291 293 296 298 301 309 317 323 326 326 325 325 326 326 326 325 325 325 325 324 323 322 321 320 318 317 317 315 313 310 309 308 308 308 307 307 309 309 309 309 308 306 305 304 304 304
278 277 277 278 279 274 273 282 281 271 273 277 280 282 282 281 281 281 283 283 283 283 282 277 275 275 275 275 275 277 280 280 282 284 284 283 282 281 286 289 289 293 298 303 312 319 325 326 326 325 326 326 325 325 325 326 326 326 325 323 321 319 318 317 317 317 315 313 311 309 307 305 304 303 303 305 306 307 307 306 306 305 304 303 302
279 278 278 281 281 272 269 279 283 278 277 278 279 281 280 280 280 281 283 283 283 283 283 280 275 274 273 273 275 276 278 279 280 282 282 280 277 279 287 293 295 298 301 308 317 323 325 325 324 324 324 324 324 325 326 326 327 327 325 323 321 320 319 319 318 318 316 313 311 308 306 304 303 302 302 302 302 303 303 304 304 304 304 302 301
278 279 279 281 279 268 267 276 285 287 286 284 283 282 280 278 279 282 283 282 282 282 283 281 276 272 271 272 275 279 282 283 283 282 279 276 279 288 296 299 299 300 305 313 320 322 323 323 323 322 321 322 323 324 325 326 326 326 324 323 321 320 320 320 319 317 315 313 311 310 308 306 305 304 303 301 300 299 300 300 301 302 303 301 299
278 277 272 275 277 268 268 278 289 293 293 293 289 282 278 277 278 280 281 282 283 282 281 279 275 269 268 270 276 282 286 284 281 278 277 280 288 294 296 294 295 300 308 316 319 320 321 321 320 320 320 321 323 324 325 326 325 325 323 322 321 320 319 319 319 317 315 314 314 313 310 308 307 306 304 302 300 299 298 297 297 299 299 297 296
275 271 260 262 272 271 277 286 291 291 290 293 292 286 280 277 278 278 279 282 283 283 280 277 274 271 268 269 277 281 278 269 265 267 272 278 284 286 285 286 293 303 312 316 319 319 319 319 319 319 320 321 323 324 325 325 324 323 322 321 320 319 319 319 318 317 316 315 315 313 311 310 309 306 305 303 301 300 298 297 295 295 294 295 296
269 266 257 262 269 274 280 285 287 286 282 286 290 288 283 280 279 279 281 283 284 282 278 275 273 271 269 270 274 271 254 245 252 261 267 273 276 277 281 289 300 309 314 317 317 316 315 317 318 318 320 321 322 323 323 323 322 321 320 320 319 318 317 317 317 316 316 315 314 313 312 311 309 307 306 304 302 300 298 296 294 292 291 292 293
264 263 260 264 268 274 280 281 284 284 279 281 285 284 284 283 282 282 284 285 284 280 275 273 271 268 269 270 266 255 247 252 261 268 274 277 278 281 288 298 306 311 314 314 312 311 313 314 315 316 317 319 321 321 321 320 319 318 318 317 317 316 316 316 316 315 315 315 314 313 312 311 309 307 304 302 300 299 298 296 294 292 290 289 287
261 263 264 264 266 271 275 278 286 286 280 278 280 281 283 284 284 284 285 287 285 277 270 268 267 267 265 261 256 254 257 265 272 278 281 280 282 288 297 303 306 309 310 308 308 309 310 311 312 314 316 319 319 319 318 317 317 316 316 315 314 315 315 314 314 315 315 315 313 312 312 310 308 305 301 299 298 297 297 297 296 294 292 290 286
260 262 265 264 264 266 268 276 286 287 281 276 276 279 282 283 282 280 283 286 278 269 266 265 264 264 258 256 260 262 265 270 276 278 279 282 287 294 300 302 304 306 304 304 306 307 307 308 311 314 316 317 317 316 316 316 316 315 314 313 313 314 314 314 313 314 314 314 312 311 310 308 306 303 300 298 297 297 297 296 295 294 292 290 287
261 261 263 263 264 267 271 277 281 279 273 270 273 278 280 280 275 272 275 271 259 256 258 257 260 265 264 264 266 266 267 271 273 275 279 285 290 295 299 300 301 302 301 303 304 304 306 308 311 313 315 316 316 316 316 316 315 313 312 311 312 313 313 314 314 314 314 313 311 309 307 305 304 302 300 298 296 296 296 294 292 291 290 289 287
261 261 261 263 268 275 278 277 272 267 264 267 271 269 274 278 268 263 262 254 243 237 233 243 269 277 271 265 264 265 269 271 273 277 282 287 291 294 295 296 297 298 299 300 301 303 305 308 311 314 315 315 316 316 315 314 313 312 312 311 311 311 312 313 314 314 313 312 310 308 306 304 303 302 300 298 297 296 295 293 290 289 288 286 285
259 261 261 264 272 279 279 272 263 258 261 264 256 242 256 267 254 253 251 242 230 220 228 261 279 277 267 263 264 268 273 274 277 280 283 286 289 290 291 293 295 297 298 299 302 304 307 310 312 314 314 315 315 314 314 313 312 312 312 312 311 311 311 311 313 313 312 310 308 307 306 305 304 302 301 300 299 298 296 293 291 289 285 283 282
260 260 260 263 269 273 272 264 256 256 259 251 233 235 258 247 237 245 244 233 225 232 257 275 278 270 264 264 266 270 273 275 277 280 281 284 285 288 292 295 297 298 300 302 305 308 310 311 312 313 313 313 313 312 312 311 312 312 312 312 312 311 311 311 312 312 311 309 308 307 306 305 305 304 303 302 301 300 298 295 293 290 286 283 280
261 258 257 259 260 262 261 255 253 255 247 232 230 249 257 241 240 250 246 237 240 256 268 271 267 261 258 260 262 267 271 273 275 276 279 282 286 292 296 298 300 302 303 305 307 309 310 310 311 311 311 311 311 311 311 312 312 313 313 312 311 311 311 311 312 312 312 310 308 307 306 305 305 305 304 303 302 301 299 297 295 292 288 285 282
260 255 253 254 254 254 253 249 249 244 230 226 239 250 244 238 247 251 247 248 254 258 257 253 253 253 252 256 262 266 269 271 272 276 281 288 293 297 299 300 302 303 305 306 308 308 308 308 308 308 308 309 310 311 311 312 313 313 312 311 311 311 311 311 311 311 311 310 309 307 306 306 305 305 304 302 301 300 299 298 297 294 291 288 285
255 250 250 252 253 253 250 247 244 232 224 233 245 240 231 237 244 243 243 248 249 246 242 242 245 246 249 255 262 266 269 272 277 284 290 295 298 300 300 301 303 304 305 306 307 306 306 306 306 307 309 309 310 311 312 312 312 312 311 311 311 311 311 311 311 311 311 311 310 308 307 306 305 304 304 303 302 300 299 297 296 294 292 289 286
248 247 250 254 256 255 251 246 240 231 231 244 246 236 235 239 238 236 238 240 240 240 240 243 246 250 255 261 266 270 275 281 287 292 296 297 299 301 301 303 304 306 306 306 306 306 305 306 307 308 309 309 310 311 311 312 311 311 311 311 311 311 311 312 312 312 311 310 309 307 306 305 303 302 301 301 300 299 298 297 295 294 292 290 287
Height
5898 5897 5896 5896 5895 5894 5894 5893 5893 5892 5891 5890 5889 5888 5887 5887 5886 5885 5885 5884 5883 5883 5882 5881 5880 5879 5878 5877 5875 5874 5873 5872 5871 5870 5869 5867 5866 5864 5863 5862 5861 5860 5859 5858 5857 5857 5856 5855 5854 5853 5852 5851 5850 5849 5849 5848 5848 5847 5847 5846 5846 5845 5845 5844 5844 5843 5842 5842 5841 5841 5840 5839 5839 5838 5837 5837 5836 5836 5835 5834 5834 5833 5833 5833 5832
5898 5897 5896 5895 5894 5894 5893 5893 5892 5891 5891 5890 5889 5888 5887 5886 5886 5885 5884 5884 5883 5882 5881 5880 5879 5878 5877 5876 5875 5874 5872 5872 5871 5870 5869 5867 5866 5864 5863 5862 5861 5860 5859 5858 5857 5856 5855 5855 5854 5853 5852 5851 5850 5850 5849 5848 5848 5847 5847 5846 5846 5845 5845 5844 5844 5843 5842 5842 5841 5841 5840 5839 5839 5838 5838 5837 5836 5836 5835 5835 5834 5834 5833 5832 5832
5897 5896 5895 5894 5893 5893 5892 5892 5891 5891 5890 5889 5889 5888 5887 5886 5885 5885 5884 5883 5883 5882 5881 5880 5879 5878 5877 5876 5875 5873 5872 5871 5870 5869 5868 5867 5866 5865 5863 5862 5861 5860 5859 5858 5857 5856 5855 5854 5853 5853 5852 5851 5850 5850 5849 5848 5848 5847 5847 5846 5846 5845 5845 5844 5844 5843 5842 5842 5841 5840 5840 5839 5839 5838 5837 5837 5837 5836 5835 5835 5834 5834 5833 5832 5831
5896 5895 5894 5893 5892 5892 5892 5891 5891 5890 5889 5889 5888 5887 5886 5886 5885 5884 5884 5883 5883 5882 5881 5880 5878 5877 5876 5875 5874 5873 5872 5871 5870 5869 5868 5867 5866 5865 5863 5862 5861 5860 5858 5857 5856 5855 5855 5854 5853 5852 5852 5851 5850 5850 5849 5849 5848 5848 5847 5847 5846 5845 5845 5844 5844 5843 5842 5842 5841 5840 5840 5839 5839 5838 5837 5837 5836 5836 5835 5834 5834 5833 5832 5832 5831
5895 5894 5893 5891 5891 5891 5891 5890 5890 5889 5889 5888 5888 5887 5886 5885 5885 5884 5883 5883 5882 5881 5880 5879 5878 5877 5876 5875 5874 5873 5872 5871 5870 5869 5867 5866 5865 5864 5863 5862 5861 5859 5858 5857 5856 5855 5854 5853 5853 5852 5851 5851 5850 5850 5849 5849 5848 5848 5847 5847 5846 5845 5844 5844 5843 5843 5842 5842 5841 5840 5840 5839 5838 5838 5837 5836 5836 5835 5834 5834 5833 5832 5832 5831 5830
5893 5892 5891 5890 5890 5890 5890 5889 5889 5889 5888 5888 5887 5887 5886 5885 5884 5883 5883 5882 5881 5881 5880 5879 5878 5876 5875 5874 5873 5872 5872 5871 5869 5868 5867 5866 5865 5864 5863 5862 5860 5859 5858 5857 5856 5855 5854 5853 5852 5852 5851 5850 5850 5849 5849 5849 5848 5848 5847 5846 5846 5845 5844 5843 5843 5842 5842 5841 5841 5840 5840 5839 5838 5837 5836 5836 5835 5834 5834 5833 5832 5831 5831 5830 5829
5891 5890 5889 5889 5888 5888 5889 5889 5888 5888 5888 5887 5887 5886 5885 5884 5884 5883 5882 5882 5881 5880 5879 5878 5877 5876 5875 5874 5873 5872 5871 5870 5869 5868 5867 5866 5865 5864 5862 5861 5860 5859 5858 5857 5855 5854 5853 5853 5852 5851 5851 5850 5850 5849 5849 5848 5848 5847 5847 5846 5845 5845 5844 5843 5843 5842 5842 5841 5840 5840 5839 5838 5838 5837 5836 5836 5835 5834 5833 5832 5832 5831 5830 5829 5828
5889 5888 5888 5887 5887 5887 5888 5888 5887 5887 5887 5886 5886 5885 5884 5884 5883 5882 5882 5881 5880 5879 5878 5878 5876 5875 5874 5873 5872 5872 5871 5870 5869 5868 5867 5866 5864 5863 5862 5861 5859 5858 5857 5856 5855 5854 5853 5852 5852 5851 5850 5850 5849 5849 5848 5848 5847 5847 5847 5846 5845 5844 5843 5843 5842 5842 5841 5840 5840 5839 5838 5838 5837 5836 5835 5835 5834 5833 5833 5832 5831 5830 5829 5828 5828
5888 5887 5886 5886 5886 5887 5887 5887 5886 5886 5886 5885 5885 5884 5884 5883 5883 5882 5881 5880 5879 5879 5878 5877 5876 5875 5874 5873 5872 5872 5871 5870 5869 5867 5866 5865 5864 5862 5861 5860 5859 5858 5857 5856 5855 5854 5853 5852 5851 5851 5850 5849 5849 5849 5848 5848 5847 5847 5846 5846 5845 5844 5843 5842 5842 5841 5840 5840 5839 5839 5838 5837 5836 5836 5835 5835 5834 5833 5832 5831 5830 5829 5829 5828 5827
5887 5886 5885 5885 5885 5885 5885 5885 5885 5885 5884 5884 5884 5883 5883 5883 5882 5881 5880 5879 5879 5878 5877 5876 5875 5874 5873 5873 5872 5871 5870 5869 5868 5867 5866 5864 5863 5862 5861 5860 5858 5857 5857 5855 5854 5854 5853 5852 5851 5850 5850 5849 5849 5848 5848 5847 5847 5847 5846 5845 5845 5844 5843 5842 5842 5841 5840 5839 5839 5838 5838 5837 5836 5836 5835 5834 5833 5833 5832 5831 5830 5829 5828 5827 5826
5885 5885 5884 5884 5884 5884 5884 5884 5884 5884 5883 5883 5883 5883 5883 5882 5881 5880 5879 5878 5878 5877 5876 5875 5874 5874 5873 5872 5871 5871 5870 5869 5867 5866 5865 5863 5862 5861 5860 5859 5858 5857 5856 5855 5854 5854 5853 5852 5851 5851 5850 5850 5849 5849 5848 5848 5847 5847 5846 5845 5845 5844 5843 5842 5842 5840 5840 5839 5838 5838 5837 5836 5836 5835 5835 5834 5833 5832 5831 5830 5829 5828 5827 5826 5825
5884 5883 5883 5882 5882 5882 5883 5883 5883 5882 5882 5882 5882 5882 5882 5881 5880 5879 5878 5878 5877 5876 5876 5875 5874 5873 5872 5872 5871 5870 5869 5868 5867 5865 5864 5863 5862 5861 5860 5859 5858 5857 5856 5855 5854 5854 5853 5852 5852 5851 5851 5850 5850 5849 5848 5848 5847 5847 5846 5845 5845 5844 5843 5842 5842 5841 5840 5839 5838 5838 5837 5836 5836 5835 5834 5834 5833 5832 5831 5830 5829 5828 5827 5826 5824
5882 5882 5881 5881 5881 5881 5881 5881 5881 5881 5881 5881 5881 5881 5881 5880 5879 5878 5878 5877 5876 5876 5875 5874 5873 5872 5872 5871 5870 5869 5868 5867 5866 5865 5863 5862 5861 5860 5860 5858 5857 5857 5856 5855 5855 5854 5854 5853 5852 5852 5851 5851 5850 5850 5849 5848 5848 5847 5846 5846 5845 5844 5843 5841 5842 5841 5840 5839 5839 5838 5837 5836 5836 5835 5834 5833 5832 5831 5830 5829 5828 5827 5826 5825 5824
5881 5881 5880 5880 5880 5879 5880 5880 5880 5880 5880 5879 5879 5880 5880 5879 5879 5878 5877 5876 5875 5875 5875 5874 5873 5872 5871 5870 5869 5869 5868 5867 5865 5864 5863 5862 5861 5860 5859 5858 5857 5857 5856 5856 5855 5855 5854 5854 5853 5852 5852 5851 5851 5850 5849 5849 5848 5847 5847 5846 5845 5845 5843 5841 5842 5842 5840 5839 5839 5838 5837 5836 5835 5834 5834 5833 5832 5830 5830 5828 5827 5826 5825 5824 5823
5880 5880 5879 5879 5879 5878 5878 5878 5878 5878 5878 5878 5878 5878 5878 5878 5878 5877 5876 5875 5875 5874 5874 5873 5872 5871 5870 5869 5868 5868 5867 5866 5865 5864 5863 5862 5861 5860 5859 5858 5858 5857 5857 5856 5856 5855 5855 5854 5854 5853 5852 5851 5851 5850 5850 5849 5848 5848 5847 5846 5846 5845 5844 5841 5841 5842 5841 5839 5839 5838 5837 5836 5835 5834 5833 5832 5831 5829 5828 5827 5826 5825 5824 5823 5822
5879 5879 5878 5878 5877 5877 5877 5877 5877 5877 5877 5877 5877 5877 5877 5877 5877 5876 5875 5874 5874 5874 5873 5872 5871 5870 5869 5868 5867 5867 5866 5865 5864 5864 5862 5861 5860 5860 5859 5858 5858 5858 5857 5857 5856 5855 5855 5854 5854 5853 5852 5851 5851 5850 5849 5849 5848 5848 5847 5846 5846 5845 5843 5841 5841 5841 5840 5839 5838 5837 5836 5835 5834 5833 5831 5830 5829 5828 5827 5826 5825 5823 5822 5821 5820
5877 5877 5877 5877 5876 5876 5876 5876 5876 5876 5875 5875 5875 5876 5876 5876 5876 5875 5874 5874 5873 5873 5872 5871 5870 5869 5868 5867 5867 5866 5865 5864 5864 5863 5863 5862 5861 5860 5859 5859 5859 5858 5858 5857 5856 5855 5855 5854 5853 5853 5852 5851 5850 5849 5849 5848 5847 5847 5846 5845 5845 5844 5842 5841 5840 5840 5839 5838 5837 5836 5835 5834 5833 5831 5830 5829 5828 5826 5825 5824 5823 5822 5821 5819 5818
5876 5876 5876 5875 5875 5875 5874 5874 5875 5875 5875 5874 5874 5875 5875 5875 5875 5874 5873 5873 5872 5872 5871 5870 5869 5868 5868 5867 5866 5865 5864 5864 5863 5863 5863 5862 5861 5860 5859 5859 5859 5858 5858 5857 5856 5855 5854 5854 5853 5852 5852 5851 5850 5849 5848 5847 5847 5846 5845 5845 5844 5843 5841 5840 5839 5838 5837 5837 5836 5835 5833 5832 5831 5830 5829 5827 5826 5825 5824 5823 5821 5820 5819 5818 5817
5875 5874 5874 5874 5873 5873 5873 5873 5874 5874 5874 5873 5873 5873 5873 5873 5873 5872 5872 5872 5871 5871 5870 5869 5868 5868 5867 5866 5865 5865 5864 5863 5863 5863 5862 5862 5861 5860 5859 5859 5858 5858 5857 5857 5856 5855 5854 5854 5853 5852 5851 5850 5849 5848 5847 5847 5846 5845 5845 5844 5843 5842 5841 5839 5838 5837 5836 5835 5834 5833 5832 5831 5830 5829 5828 5827 5825 5824 5823 5821 5820 5819 5817 5816 5815
5872 5872 5872 5872 5872 5871 5872 5872 5872 5872 5872 5872 5872 5872 5872 5872 5872 5871 5871 5871 5871 5870 5869 5868 5867 5867 5866 5866 5865 5864 5863 5863 5862 5862 5862 5861 5861 5860 5859 5859 5858 5857 5857 5856 5855 5855 5854 5853 5852 5852 5851 5850 5849 5848 5847 5846 5845 5845 5844 5843 5843 5842 5840 5838 5837 5836 5835 5835 5834 5832 5831 5830 5829 5828 5827 5826 5825 5823 5822 5820 5819 5817 5816 5814 5812
5870 5870 5870 5870 5870 5870 5870 5871 5871 5871 5871 5871 5870 5870 5870 5870 5870 5870 5870 5870 5870 5869 5868 5867 5866 5866 5865 5865 5864 5863 5862 5862 5862 5861 5861 5860 5860 5859 5859 5858 5858 5857 5857 5856 5855 5854 5853 5852 5852 5851 5851 5850 5849 5848 5847 5846 5845 5844 5843 5843 5842 5841 5840 5838 5836 5835 5834 5833 5832 5831 5830 5829 5828 5827 5825 5824 5823 5822 5821 5819 5818 5816 5814 5813 5811
5867 5868 5868 5868 5869 5869 5870 5870 5869 5869 5869 5869 5869 5869 5869 5869 5869 5869 5869 5869 5869 5868 5867 5866 5865 5865 5864 5864 5863 5862 5862 5861 5861 5860 5860 5859 5859 5858 5858 5858 5858 5858 5857 5856 5855 5854 5853 5852 5851 5851 5850 5850 5849 5848 5847 5845 5844 5844 5843 5842 5841 5840 5839 5838 5836 5835 5834 5833 5832 5831 5829 5828 5827 5826 5824 5823 5822 5821 5819 5818 5816 5815 5813 5811 5809
5866 5867 5868 5868 5869 5869 5869 5869 5868 5868 5868 5868 5868 5868 5868 5867 5868 5868 5868 5868 5868 5867 5866 5865 5864 5864 5863 5863 5863 5862 5861 5861 5860 5859 5859 5858 5858 5858 5857 5857 5857 5857 5856 5855 5855 5854 5853 5852 5851 5850 5850 5849 5849 5848 5847 5845 5844 5843 5842 5841 5840 5839 5838 5837 5836 5834 5833 5832 5831 5830 5829 5827 5826 5825 5823 5822 5820 5819 5818 5816 5815 5813 5812 5810 5808
5866 5867 5867 5868 5869 5870 5869 5869 5868 5867 5867 5867 5867 5866 5866 5866 5866 5867 5867 5867 5867 5866 5865 5864 5864 5863 5863 5863 5862 5862 5861 5860 5859 5859 5858 5857 5857 5857 5857 5856 5856 5856 5855 5855 5854 5854 5853 5852 5851 5851 5850 5849 5848 5847 5847 5845 5844 5843 5842 5841 5840 5838 5837 5836 5835 5834 5833 5831 5830 5829 5828 5826 5825 5823 5822 5820 5819 5818 5816 5815 5813 5812 5810 5809 5807
5864 5864 5865 5866 5868 5870 5869 5868 5867 5866 5866 5865 5865 5865 5865 5865 5865 5866 5866 5865 5866 5865 5864 5864 5863 5863 5863 5862 5862 5861 5861 5860 5859 5858 5858 5857 5857 5856 5856 5855 5855 5855 5854 5854 5854 5853 5853 5852 5851 5851 5850 5849 5848 5847 5846 5845 5844 5843 5841 5840 5839 5837 5836 5835 5834 5832 5831 5830 5829 5827 5826 5825 5823 5822 5821 5819 5818 5816 5815 5813 5812 5810 5809 5807 5806
5861 5862 5864 5865 5867 5867 5866 5866 5865 5865 5864 5864 5864 5864 5864 5864 5864 5865 5864 5864 5864 5864 5864 5863 5863 5862 5862 5862 5861 5861 5861 5860 5859 5858 5857 5857 5856 5856 5855 5854 5854 5854 5854 5853 5853 5853 5852 5852 5851 5851 5850 5849 5848 5847 5846 5845 5844 5843 5842 5840 5838 5836 5835 5834 5832 5831 5829 5828 5827 5826 5825 5823 5822 5821 5819 5818 5816 5815 5813 5812 5810 5809 5807 5806 5804
5859 5861 5863 5864 5864 5864 5863 5863 5864 5864 5863 5863 5864 5863 5863 5863 5863 5864 5863 5863 5863 5863 5863 5863 5862 5862 5862 5862 5861 5861 5860 5860 5859 5859 5858 5857 5856 5855 5855 5854 5853 5853 5853 5853 5853 5852 5852 5851 5851 5850 5849 5848 5847 5846 5845 5844 5843 5843 5841 5839 5837 5835 5834 5833 5831 5829 5828 5827 5825 5824 5823 5822 5821 5819 5818 5816 5815 5813 5812 5810 5809 5808 5806 5804 5803
5856 5858 5860 5860 5860 5860 5860 5861 5863 5863 5862 5862 5863 5863 5862 5862 5863 5863 5862 5862 5862 5862 5862 5862 5862 5862 5862 5862 5862 5861 5860 5860 5860 5859 5858 5857 5857 5856 5855 5854 5853 5853 5853 5852 5852 5852 5851 5851 5850 5849 5848 5847 5846 5845 5844 5843 5842 5841 5840 5838 5836 5834 5833 5832 5830 5828 5827 5825 5824 5823 5822 5821 5819 5818 5817 5815 5814 5812 5810 5809 5807 5806 5805 5803 5801
5854 5856 5857 5857 5857 5858 5859 5860 5861 5861 5861 5862 5862 5862 5861 5862 5861 5861 5860 5860 5860 5860 5861 5861 5861 5862 5861 5861 5862 5861 5861 5861 5860 5860 5859 5858 5857 5856 5855 5854 5853 5852 5852 5851 5851 5850 5850 5849 5848 5847 5846 5845 5844 5844 5843 5842 5841 5840 5839 5838 5836 5835 5833 5831 5830 5828 5826 5825 5823 5822 5820 5819 5818 5816 5815 5814 5812 5811 5809 5808 5806 5805 5803 5802 5800
5854 5854 5855 5856 5857 5858 5858 5859 5860 5860 5861 5861 5861 5861 5860 5860 5860 5859 5858 5858 5859 5859 5859 5859 5860 5860 5860 5860 5861 5860 5860 5860 5860 5859 5859 5859 5858 5856 5855 5854 5852 5852 5851 5850 5850 5849 5848 5847 5846 5845 5844 5843 5843 5842 5842 5841 5840 5840 5839 5838 5837 5835 5833 5831 5829 5827 5825 5823 5822 5820 5819 5817 5816 5815 5813 5812 5811 5809 5808 5806 5805 5803 5802 5800 5798
5853 5853 5854 5855 5856 5857 5857 5858 5859 5859 5860 5859 5859 5859 5858 5858 5857 5857 5857 5857 5857 5858 5857 5857 5858 5858 5859 5859 5859 5859 5859 5858 5858 5858 5858 5858 5858 5856 5855 5853 5852 5851 5851 5850 5850 5849 5847 5846 5846 5845 5844 5843 5842 5841 5841 5840 5839 5839 5838 5836 5835 5833 5832 5830 5828 5826 5823 5821 5820 5818 5817 5816 5814 5813 5811 5810 5809 5807 5806 5805 5803 5801 5800 5798 5797
5852 5853 5854 5854 5855 5856 5856 5857 5858 5858 5858 5857 5857 5856 5856 5855 5855 5855 5856 5856 5856 5856 5855 5855 5856 5857 5857 5857 5858 5858 5857 5857 5856 5857 5857 5857 5857 5856 5855 5853 5852 5851 5850 5850 5849 5848 5846 5845 5845 5844 5843 5842 5841 5840 5839 5839 5838 5837 5835 5834 5832 5830 5829 5827 5825 5823 5821 5819 5818 5817 5815 5814 5812 5811 5809 5808 5807 5806 5804 5803 5802 5800 5798 5797 5796
5849 5850 5852 5853 5853 5854 5855 5856 5856 5856 5856 5855 5855 5854 5853 5853 5853 5854 5855 5855 5855 5854 5854 5854 5855 5855 5855 5856 5856 5856 5856 5856 5855 5855 5856 5856 5856 5855 5854 5852 5851 5850 5850 5849 5848 5846 5845 5844 5843 5842 5841 5840 5839 5839 5838 5837 5836 5834 5833 5831 5830 5828 5826 5824 5823 5821 5819 5817 5816 5815 5813 5812 5810 5809 5808 5806 5805 5804 5802 5801 5800 5798 5797 5795 5794
5847 5848 5850 5851 5852 5853 5853 5853 5853 5853 5853 5853 5852 5852 5852 5851 5851 5852 5853 5854 5853 5852 5852 5852 5852 5853 5853 5854 5854 5855 5855 5855 5854 5854 5854 5854 5854 5854 5853 5851 5850 5850 5849 5848 5846 5844 5843 5842 5841 5840 5839 5838 5837 5837 5836 5835 5833 5832 5831 5829 5827 5826 5824 5822 5821 5819 5818 5816 5814 5812 5811 5810 5808 5807 5806 5804 5803 5801 5800 5799 5798 5796 5795 5794 5792
5845 5846 5848 5849 5849 5850 5850 5850 5850 5850 5850 5850 5850 5849 5849 5849 5849 5851 5852 5852 5852 5851 5850 5850 5850 5850 5851 5851 5852 5853 5853 5853 5854 5853 5853 5853 5853 5853 5852 5851 5850 5849 5847 5846 5844 5842 5840 5840 5839 5838 5837 5836 5835 5834 5833 5832 5831 5829 5828 5826 5825 5823 5822 5820 5819 5817 5816 5814 5812 5810 5809 5807 5806 5804 5803 5802 5800 5799 5798 5797 5796 5795 5793 5792 5791
5843 5844 5846 5846 5846 5846 5847 5847 5847 5847 5847 5847 5847 5847 5846 5846 5847 5848 5850 5850 5850 5849 5849 5848 5848 5848 5848 5849 5849 5850 5851 5852 5852 5852 5851 5852 5852 5851 5850 5849 5848 5846 5845 5843 5841 5840 5839 5838 5837 5836 5835 5834 5833 5831 5830 5829 5827 5826 5825 5823 5822 5820 5819 5817 5816 5815 5813 5812 5810 5808 5806 5804 5803 5802 5801 5800 5798 5797 5796 5795 5794 5793 5792 5790 5789
5841 5842 5844 5844 5843 5843 5844 5845 5845 5845 5844 5844 5844 5844 5844 5844 5845 5846 5847 5848 5847 5847 5847 5847 5846 5846 5846 5846 5846 5847 5848 5848 5849 5848 5848 5848 5849 5848 5847 5846 5845 5844 5843 5841 5839 5838 5837 5836 5835 5834 5833 5832 5830 5829 5827 5826 5825 5823 5822 5821 5819 5817 5816 5815 5813 5812 5810 5809 5807 5805 5804 5802 5800 5799 5798 5797 5796 5795 5793 5792 5791 5791 5790 5788 5787
5839 5840 5842 5842 5842 5841 5842 5843 5843 5843 5843 5842 5842 5842 5842 5842 5843 5844 5844 5845 5845 5844 5845 5845 5844 5844 5844 5844 5844 5845 5845 5845 5845 5845 5845 5845 5845 5845 5844 5844 5843 5843 5841 5839 5838 5836 5835 5834 5833 5832 5830 5829 5828 5827 5825 5824 5822 5821 5820 5818 5817 5815 5814 5812 5811 5809 5808 5806 5804 5803 5801 5799 5797 5796 5795 5794 5793 5792 5791 5790 5789 5788 5787 5786 5785
5837 5838 5840 5841 5840 5840 5840 5840 5841 5841 5841 5841 5840 5840 5839 5840 5840 5841 5842 5842 5842 5842 5842 5842 5842 5843 5843 5843 5843 5843 5843 5844 5844 5845 5844 5844 5844 5844 5844 5843 5842 5841 5839 5837 5835 5834 5833 5832 5831 5829 5828 5827 5825 5824 5823 5821 5820 5819 5818 5816 5814 5813 5811 5810 5808 5807 5805 5803 5802 5800 5798 5796 5795 5793 5792 5791 5790 5789 5788 5787 5786 5785 5784 5784 5783
5836 5836 5838 5838 5839 5838 5838 5839 5839 5839 5839 5839 5838 5838 5837 5837 5838 5839 5839 5839 5839 5839 5839 5840 5840 5841 5841 5841 5842 5843 5843 5844 5845 5844 5844 5843 5843 5843 5843 5841 5839 5837 5836 5834 5833 5831 5830 5830 5829 5827 5826 5824 5823 5821 5820 5819 5818 5817 5816 5814 5812 5810 5808 5807 5805 5804 5802 5801 5799 5797 5795 5794 5792 5791 5789 5788 5787 5786 5785 5784 5783 5782 5781 5781 5780
5833 5834 5835 5836 5836 5836 5836 5836 5837 5836 5836 5836 5836 5836 5835 5835 5836 5836 5837 5837 5837 5837 5837 5837 5838 5838 5839 5839 5840 5841 5842 5843 5843 5842 5841 5841 5841 5840 5839 5838 5836 5834 5833 5832 5831 5829 5828 5828 5827 5825 5824 5822 5821 5819 5818 5817 5816 5815 5813 5811 5810 5808 5806 5804 5802 5801 5799 5798 5795 5793 5792 5791 5789 5788 5786 5785 5784 5782 5781 5780 5779 5779 5778 5778 5777
5831 5832 5832 5833 5834 5834 5834 5834 5834 5834 5834 5834 5834 5834 5833 5833 5834 5834 5835 5835 5835 5834 5834 5834 5835 5835 5836 5837 5837 5838 5839 5839 5839 5838 5838 5838 5838 5837 5836 5834 5833 5832 5831 5830 5829 5828 5827 5826 5825 5823 5822 5820 5819 5817 5816 5815 5813 5812 5810 5809 5807 5805 5803 5801 5799 5798 5796 5795 5792 5790 5789 5787 5786 5785 5784 5782 5780 5779 5778 5777 5776 5775 5775 5774 5774
5828 5829 5830 5831 5831 5832 5832 5831 5831 5831 5832 5832 5832 5832 5832 5831 5832 5832 5833 5833 5832 5832 5832 5832 5833 5833 5834 5835 5835 5836 5836 5836 5835 5835 5835 5836 5836 5835 5834 5832 5832 5831 5830 5828 5827 5826 5825 5824 5822 5821 5819 5818 5817 5815 5813 5812 5811 5809 5808 5806 5804 5802 5800 5798 5796 5795 5793 5792 5789 5787 5786 5784 5783 5782 5780 5779 5777 5776 5775 5774 5773 5772 5771 5771 5770
5825 5827 5828 5828 5829 5829 5829 5828 5828 5829 5830 5830 5830 5830 5830 5829 5830 5830 5831 5830 5830 5830 5830 5831 5832 5833 5833 5834 5834 5834 5834 5833 5833 5834 5834 5834 5834 5833 5832 5831 5830 5829 5828 5826 5825 5824 5823 5821 5820 5818 5817 5816 5814 5813 5811 5810 5808 5807 5805 5803 5802 5800 5798 5795 5793 5791 5790 5788 5786 5784 5783 5781 5780 5778 5777 5775 5773 5772 5772 5771 5770 5769 5768 5767 5766
5823 5824 5825 5825 5825 5825 5826 5826 5826 5826 5827 5828 5828 5828 5828 5828 5828 5828 5828 5828 5828 5828 5829 5830 5831 5831 5832 5832 5833 5833 5832 5832 5833 5833 5833 5833 5832 5831 5830 5829 5828 5827 5826 5825 5824 5822 5820 5819 5817 5816 5814 5813 5812 5810 5809 5807 5805 5804 5802 5800 5799 5797 5796 5793 5791 5788 5786 5784 5783 5781 5779 5778 5776 5774 5772 5771 5769 5769 5768 5767 5766 5766 5765 5763 5762
5822 5822 5822 5823 5823 5823 5823 5823 5823 5824 5825 5825 5826 5826 5826 5827 5827 5827 5827 5827 5827 5827 5828 5828 5829 5830 5831 5831 5832 5831 5831 5831 5832 5832 5832 5831 5831 5830 5829 5828 5827 5825 5824 5822 5821 5819 5817 5816 5814 5813 5811 5810 5809 5807 5805 5804 5802 5801 5799 5797 5795 5794 5792 5790 5789 5786 5784 5781 5779 5777 5775 5773 5772 5770 5768 5766 5765 5764 5764 5763 5763 5763 5761 5759 5759
5821 5821 5821 5821 5821 5821 5821 5821 5821 5822 5823 5823 5824 5825 5825 5825 5826 5826 5826 5826 5826 5826 5827 5827 5828 5829 5830 5830 5830 5830 5830 5831 5831 5831 5831 5830 5829 5828 5827 5825 5824 5823 5821 5819 5818 5816 5814 5812 5811 5810 5808 5807 5805 5804 5802 5800 5799 5797 5795 5794 5792 5790 5788 5787 5785 5783 5781 5778 5776 5774 5771 5769 5767 5765 5763 5761 5760 5759 5758 5758 5758 5758 5756 5755 5754
5819 5819 5819 5819 5820 5819 5819 5819 5820 5820 5821 5822 5822 5823 5824 5824 5825 5825 5825 5825 5826 5826 5826 5826 5827 5828 5829 5829 5829 5829 5829 5830 5830 5830 5829 5828 5827 5826 5824 5823 5821 5820 5818 5817 5815 5813 5811 5810 5808 5806 5805 5804 5802 5800 5798 5796 5794 5793 5791 5790 5788 5786 5784 5782 5780 5778 5777 5775 5772 5770 5768 5765 5763 5760 5758 5757 5755 5754 5753 5752 5752 5752 5751 5750 5749
5816 5817 5817 5818 5818 5817 5817 5817 5818 5819 5819 5820 5821 5822 5822 5823 5823 5824 5824 5824 5825 5825 5825 5825 5827 5828 5828 5828 5828 5828 5828 5829 5829 5828 5827 5826 5824 5823 5822 5820 5819 5817 5816 5814 5812 5811 5809 5807 5805 5803 5802 5800 5798 5796 5794 5792 5790 5789 5787 5786 5784 5782 5780 5778 5775 5773 5772 5770 5768 5765 5763 5761 5758 5756 5754 5752 5751 5749 5748 5747 5746 5746 5745 5745 5744
5813 5815 5815 5816 5816 5815 5815 5816 5817 5817 5818 5819 5819 5820 5821 5822 5822 5822 5823 5823 5823 5823 5823 5824 5826 5827 5827 5826 5827 5827 5827 5827 5827 5826 5824 5823 5822 5820 5819 5818 5816 5815 5813 5811 5810 5808 5806 5804 5802 5800 5798 5796 5794 5792 5790 5789 5787 5785 5783 5782 5780 5778 5776 5773 5771 5769 5767 5765 5763 5760 5758 5756 5754 5752 5749 5747 5745 5744 5743 5742 5741 5740 5739 5739 5738
5812 5813 5814 5814 5814 5814 5814 5814 5815 5816 5816 5817 5818 5818 5819 5820 5820 5821 5821 5822 5822 5822 5822 5823 5824 5825 5825 5825 5825 5825 5825 5825 5824 5823 5821 5820 5819 5818 5816 5815 5813 5812 5810 5808 5806 5805 5803 5801 5798 5796 5794 5793 5790 5788 5787 5785 5783 5781 5779 5778 5776 5774 5772 5770 5767 5765 5763 5761 5759 5756 5754 5752 5750 5748 5746 5743 5740 5738 5737 5736 5735 5734 5733 5732 5732